Regional Weather Roundup
Issued by NWS

Home | Current Version | Previous Version | Text Only | Print | Product List | Glossary On
Versions: 1 2 3 4 5 6 7 8 9 10 11 12 13 14 15 16 17 18 19 20 21 22 23 24 25 26 27 28 29 30 31 32 33 34 35 36 37 38 39 40 41 42 43 44 45 46 47 48 49 50
000
ASUS44 KBMX 212010
RWRAL

ALABAMA REGIONAL WEATHER ROUNDUP
NATIONAL WEATHER SERVICE BIRMINGHAM AL
200 PM CST SUN JAN 21 2018

NOTE: "FAIR" INDICATES FEW OR NO CLOUDS BELOW 12,000 FEET
WITH NO SIGNIFICANT WEATHER AND/OR OBSTRUCTIONS TO VISIBILITY.

THE REMARK "TC" DENOTES TEMPERATURE IN DEGREES CELSIUS.

ALZ001>011-014-016>018-020-212100-
NORTH ALABAMA

CITY           SKY/WX    TMP DP  RH WIND       PRES   REMARKS
MUSCLE SHOALS  CLOUDY    67  43  41 S8        30.11F
HUNTSVILLE     FAIR      67  46  47 S7        30.12F
DECATUR        PTSUNNY   68  44  42 S10       30.13F
HALEYVILLE     PTSUNNY   68  47  46 S10       30.13F
GADSDEN        FAIR      68  45  43 VRB3      30.15F
$$

ALZ012-013-022-023-030>036-040>044-212100-
WEST CENTRAL ALABAMA

CITY           SKY/WX    TMP DP  RH WIND       PRES   REMARKS
TUSCALOOSA     FAIR      72  45  37 VRB7      30.13F
DEMOPOLIS        N/A     73  42  32 SE6       30.11F
$$

ALZ015-024>026-033>036-041>044-212100-
CENTRAL ALABAMA

CITY           SKY/WX    TMP DP  RH WIND       PRES   REMARKS
BIRMINGHAM     FAIR      69  42  37 S8        30.16F
MONTGOMERY     FAIR      71  43  36 SE9       30.15F
SHELBY CO ARPT FAIR      70  44  39 S6        30.15F
MAXWELL AFB    SUNNY     67  47  47 E9        30.14F
GREENVILLE     FAIR      73  41  31 VRB5      30.14F
SELMA          FAIR      72  43  35 CALM      30.14F
PRATTVILLE     FAIR      69  44  40 E8        30.15F
BESSEMER       FAIR      70  45  40 SE8       30.15F
TALLADEGA      FAIR      70  45  39 SE9       30.15F
PELL CITY      CLEAR     70  45  40 S9        30.15F
MARION         FAIR      69  46  43 SE7       30.13F
SYLACAUGA      FAIR      72  47  41 S8        30.15F
$$

ALZ019-021-028-029-037-038-045>048-212100-
EAST CENTRAL ALABAMA

CITY           SKY/WX    TMP DP  RH WIND       PRES   REMARKS
ANNISTON       FAIR      71  43  36 S7        30.15F
ALEXANDER CITY FAIR      66  49  54 SE6       30.17F
AUBURN         FAIR      69  45  41 E6        30.18F
$$

ALZ051>064-212100-
SOUTHWEST ALABAMA

CITY           SKY/WX    TMP DP  RH WIND       PRES   REMARKS
MOBILE         FAIR      71  50  47 SE16      30.15F
BROOKLEY FIELD FAIR      68  53  58 S12       30.16F
EVERGREEN      FAIR      74  44  34 S7        30.14F
$$

ALZ049-050-065>069-212100-
SOUTHEAST ALABAMA

CITY           SKY/WX    TMP DP  RH WIND       PRES   REMARKS
DOTHAN         FAIR      70  42  36 NE6       30.19F
OZARK          FAIR      70  41  34 SE9       30.15F
TROY           FAIR      71  44  37 E9        30.16F
EUFAULA        FAIR      72  44  36 NE5       30.16F
$$



USA.gov is the U.S. government's official web portal to all federal, state and local government web resources and services.